Location: West Sayville
(40.7279°N, 73.0976°W)
Time: 06:01:51
(UTC+00:00)

NOAA 11 - Pass Details

Date: 29 October 2020
Orbit: 833 x 850 km, 98.4° (Epoch: 27 November)

Event Time Altitude Azimuth Distance (km) Brightness Sun altitude
Rises 22:22:25 0° 154° (SSE) 3,381 7.2 -6.4°
Reaches altitude 10° 22:24:48 10° 150° (SSE) 2,448 6.4 -6.9°
Maximum altitude 22:30:07 59° 73° (ENE) 965 4.2 -7.9°
Drops below altitude 10° 22:35:27 10° 355° (N) 2,455 6.6 -8.9°
Sets 22:37:50 0° 351° (N) 3,391 7.3 -9.3°
